Weatherford, Texas, United States (76085)
Lat: 32.76N, Lon: 97.8W
Wx Zone: TXZ117
Local Info
Past Weather Observations for Tuesday, July 26, 2016

NOTE: This archive is for the closest National Weather Service station to Weatherford. Information may differ from the station used for current weather conditions.

Click here for Long-term Archive

Time Weather Temperature Dewpoint Humidity Pressure Winds Precip Visibility
23:53
Clear
79°F / 26°C 72°F / 22°C 79% 29.95 in
(1014 mb)
E 3.5 mph
(E 6 kph)
- 10SM
22:53
Clear
79°F / 26°C 72°F / 22°C 79% 29.95 in
(1014 mb)
ESE 4.6 mph
(ESE 7 kph)
- 10SM
21:53
Clear
82°F / 28°C 70°F / 21°C 66% 29.92 in
(1013 mb)
E 8.1 mph
(E 13 kph)
- 10SM
20:53
Clear
82°F / 28°C 72°F / 22°C 70% 29.92 in
(1013 mb)
E 9.2 mph
(E 15 kph)
- 10SM
19:53
Clear
84°F / 29°C 70°F / 21°C 62% 29.92 in
(1013 mb)
E 9.2 mph
(E 15 kph)
- 10SM
19:31
Partly Cloudy
84°F / 29°C 70°F / 21°C 62% 29.92 in
(1013 mb)
ENE 10.4 mph
(ENE 17 kph)
- 10SM
19:16
Mostly Cloudy
Thunder Storms
86°F / 30°C 70°F / 21°C 59% 29.89 in
(1012 mb)
E 12.7 mph
(E 20 kph)
- 10SM
18:53
Mostly Cloudy
Thunder Storms
91°F / 33°C 70°F / 21°C 49% 29.89 in
(1012 mb)
SE 4.6 mph
(SE 7 kph)
0.00 in
(0.00 mm)
10SM
17:53
Overcast
Light Rain
88°F / 31°C 73°F / 23°C 62% 29.89 in
(1012 mb)
NNE 4.6 mph
(NNE 7 kph)
0.00 in
(0.00 mm)
10SM
16:53
Clear
97°F / 36°C 68°F / 20°C 39% 29.89 in
(1012 mb)
E 10.4 mph
(E 17 kph)
- 10SM
15:53
Partly Cloudy
97°F / 36°C 68°F / 20°C 39% 29.89 in
(1012 mb)
NNE 4.6 mph
(NNE 7 kph)
- 10SM
14:53
Partly Cloudy
93°F / 34°C 68°F / 20°C 44% 29.89 in
(1012 mb)
SE 3.5 mph
(SE 6 kph)
- 10SM
13:53
Partly Cloudy
93°F / 34°C 68°F / 20°C 44% 29.92 in
(1013 mb)
E 4.6 mph
(E 7 kph)
- 10SM
12:53
Partly Cloudy
95°F / 35°C 68°F / 20°C 41% 29.95 in
(1014 mb)
E 8.1 mph
(E 13 kph)
- 10SM
11:53
Clear
91°F / 33°C 68°F / 20°C 46% 29.98 in
(1015 mb)
ENE 4.6 mph
(ENE 7 kph)
- 10SM
10:53
Clear
90°F / 32°C 70°F / 21°C 52% 29.98 in
(1015 mb)
Variable 4.6 mph
(Variable 7 kph)
- 10SM
09:53
Clear
88°F / 31°C 70°F / 21°C 55% 30.01 in
(1016 mb)
SE 5.8 mph
(SE 9 kph)
- 10SM
08:53
Clear
84°F / 29°C 72°F / 22°C 66% 30.01 in
(1016 mb)
E 5.8 mph
(E 9 kph)
- 10SM
07:53
Clear
81°F / 27°C 72°F / 22°C 74% 30.01 in
(1016 mb)
Calm - 10SM
06:53
Clear
75°F / 24°C 72°F / 22°C 89% 29.98 in
(1015 mb)
Calm - 10SM
05:53
Clear
73°F / 23°C 70°F / 21°C 89% 29.98 in
(1015 mb)
Calm - 10SM
04:53
Clear
72°F / 22°C 70°F / 21°C 94% 29.98 in
(1015 mb)
Calm - 10SM
03:53
Clear
73°F / 23°C 70°F / 21°C 89% 29.95 in
(1014 mb)
SSE 5.8 mph
(SSE 9 kph)
- 10SM
02:53
Clear
73°F / 23°C 70°F / 21°C 89% 29.95 in
(1014 mb)
SSE 5.8 mph
(SSE 9 kph)
- 10SM
01:53
Clear
73°F / 23°C 70°F / 21°C 89% 29.95 in
(1014 mb)
SE 8.1 mph
(SE 13 kph)
- 10SM
00:53
Clear
75°F / 24°C 72°F / 22°C 89% 29.95 in
(1014 mb)
SSE 4.6 mph
(SSE 7 kph)
- 10SM
Time Weather Temperature Dewpoint Humidity Pressure Winds Precip Visibility


Weather for websites

WeatherForYou.com, LLC is not responsible for any damages or problems caused by this service. Current weather conditions are obtained from the closest station including government and personal stations which may have varying degrees of accuracy. Weather forecasts are derived from the NOAA NDFD. Like all things, this site belongs to Jesus Christ... He just trusts us to maintain it. If you have any questions or comments email webmaster@weatherforyou.com

Copyright © 2016, WeatherForYou.com LLC. All rights reserved.